Jackson, MS

12:09 PM CST on February 07, 2016 (GMT -0600)
Hawkins

Weather History for KHKS - May, 2014

Change the Weather History Date:

Friday, May 2, 2014

  Actual Average (KJAN) Record (KJAN)
Temperature  
Mean Temperature 62 °F 68 °F  
Max Temperature 75 °F 80 °F 94 °F (1902)
Min Temperature 50 °F 57 °F 40 °F (1909)
Degree Days  
Heating Degree Days 4 1  
Month to date heating degree days 2  
Since 1 July heating degree days 2381  
Cooling Degree Days 0 5  
Month to date cooling degree days 9  
Year to date cooling degree days 127  
Growing Degree Days 12 (Base 50)    
Moisture  
Dew Point 42 °F    
Average Humidity 53    
Maximum Humidity 86    
Minimum Humidity 21    
Precipitation  
Precipitation 0.00 in 0.14 in 1.66 in (1950)
Month to date precipitation 0.28  
Year to date precipitation 20.01  
Sea Level Pressure  
Sea Level Pressure 29.99 in    
Wind  
Wind Speed 2 mph (NNW)    
Max Wind Speed 9 mph    
Max Gust Speed 17 mph    
Visibility 10 miles    
Events      
T = Trace of Precipitation, MM = Missing Value Source: NWS Daily Summary

Daily Weather History Graph

Daily Weather History Graph

Search for Another Location

Airport or City:

Trip Planner

Search our weather history database for the weather conditions in past years. The results will help you decide how hot, cold, wet, or windy it might be!

Date:

Astronomy

May. 02, 2014 Rise Set
Actual Time 6:13 AM CDT 7:42 PM CDT
Civil Twilight 5:47 AM CDT 8:08 PM CDT
Nautical Twilight 5:16 AM CDT 8:40 PM CDT
Astronomical Twilight 4:43 AM CDT 9:13 PM CDT
Moon 8:54 AM CDT (5/2) 11:01 PM CDT (5/2)
Length of Visible Light 14h 21m
Length of Day
13h 29m
Waxing Crescent, 12% of the Moon is Illuminated
May 2
Waxing Crescent
May 6
First Quarter
May 14
Full
May 21
Last Quarter
May 28
New

Hourly Weather History & Observations

Time (CDT) Temp. Dew Point Humidity Pressure Visibility Wind Dir Wind Speed Gust Speed Precip Events Conditions
12:53 AM 55.0 °F 46.0 °F 72% 30.02 in 10.0 mi Calm Calm - N/A   Partly Cloudy
1:53 AM 55.0 °F 48.9 °F 80% 30.00 in 10.0 mi Calm Calm - N/A   Partly Cloudy
2:53 AM 55.0 °F 48.9 °F 80% 30.00 in 10.0 mi Calm Calm - N/A   Clear
3:53 AM 55.0 °F 46.9 °F 74% 29.99 in 10.0 mi Calm Calm - N/A   Clear
4:53 AM 52.0 °F 46.0 °F 80% 29.98 in 10.0 mi Calm Calm - N/A   Clear
5:53 AM 51.1 °F 46.0 °F 83% 29.99 in 10.0 mi Calm Calm - N/A   Clear
6:53 AM 50.0 °F 46.0 °F 86% 30.00 in 10.0 mi Calm Calm - N/A   Clear
7:53 AM 55.9 °F 46.0 °F 69% 30.02 in 10.0 mi Calm Calm - N/A   Clear
8:53 AM 63.0 °F 46.0 °F 54% 30.02 in 10.0 mi Calm Calm - N/A   Clear
9:53 AM 66.9 °F 44.1 °F 44% 30.02 in 10.0 mi NW 5.8 mph - N/A   Clear
10:53 AM 69.1 °F 39.9 °F 35% 30.03 in 10.0 mi NW 5.8 mph - N/A   Clear
11:53 AM 71.1 °F 36.0 °F 28% 30.03 in 10.0 mi WNW 9.2 mph - N/A   Clear
12:53 PM 72.0 °F 34.0 °F 25% 30.00 in 10.0 mi North 9.2 mph 16.1 mph N/A   Clear
1:53 PM 73.0 °F 33.1 °F 23% 29.98 in 10.0 mi NNW 5.8 mph - N/A   Clear
2:53 PM 73.9 °F 32.0 °F 21% 29.97 in 10.0 mi Variable 6.9 mph 17.3 mph N/A   Clear
3:53 PM 73.9 °F 34.0 °F 23% 29.95 in 10.0 mi NE 5.8 mph - N/A   Clear
4:53 PM 73.9 °F 34.0 °F 23% 29.95 in 10.0 mi North - - N/A   Mostly Cloudy
5:53 PM 72.0 °F 35.1 °F 26% 29.95 in 10.0 mi NW 5.8 mph - N/A   Clear
7:53 PM 64.0 °F 42.1 °F 45% 29.95 in 10.0 mi Calm Calm - N/A   Clear
8:53 PM 61.0 °F 45.0 °F 56% 29.96 in 10.0 mi Calm Calm - N/A   Clear
9:53 PM 57.9 °F 46.0 °F 65% 29.98 in 10.0 mi Calm Calm - N/A   Clear
10:53 PM 57.0 °F 45.0 °F 64% 29.99 in 10.0 mi Calm Calm - N/A   Clear
11:53 PM 55.9 °F 45.0 °F 67% 29.99 in 10.0 mi Calm Calm - N/A   Clear